Flag for U.S.A. Weather past 2 weeks in Lincoln, Nebraska, U.S.A.

Now
46 °F

Sunny.


Feels Like: 41 °F
Forecast: 33 / 70 °F
Wind: 9 mph from South

Location: Lincoln Municipal Airport


UV Index: 5 (Moderate)

Visibility: 2 mi


Pressure: 30.28 "Hg

Humidity: 66%

Dew point: 35 °F

Location of LincolnLocation

Historic Weather in Lincoln

°F

Lincoln temperature yesterday

Maximum temperature yesterday: 57 °F (at 3:54 PM)
Minimum temperature yesterday: 33 °F (at 6:54 AM)
Average temperature yesterday: 44 °F

Past Weeks' High & Low Weather Summary

 TemperatureHumidityPressure
High84 °F (Apr 9, 5:54 PM)89% (Apr 3, 8:54 AM)30.38 "Hg (Apr 3, 8:54 AM)
Low19 °F (Apr 15, 5:54 AM)12% (Apr 10, 4:54 PM)29.48 "Hg (Apr 12, 8:54 PM)
Average50 °F50%29.95 "Hg
* Reported Apr 3 7:54 AM — Apr 18 7:54 AM, Lincoln, Weather by CustomWeather, © 2014

Note: Actual official high and low records may vary slightly from our data, if they occured in-between our weather recording intervals... More about our weather records

Advertising

Historic Weather Conditions — Data for Previous 24 hours

 ConditionsComfort  
Time TempWeatherWind HumidityBarometerVisibility
7:54 AM
Apr 18
37 °FSunny.7 mph79%30.29 "Hg1 mi
6:54 AM33 °FClear.3 mph75%30.28 "Hg2 mi
5:54 AM37 °FClear.No wind73%30.27 "Hg6 mi
4:54 AM35 °FClear.6 mph70%30.27 "Hg6 mi
3:54 AM38 °FClear.3 mph65%30.27 "Hg6 mi
2:54 AM38 °FClear.No wind63%30.27 "Hg8 mi
1:54 AM38 °FClear.3 mph60%30.28 "Hg9 mi
12:54 AM38 °FClear.No wind63%30.29 "Hg9 mi
11:54 PM
Apr 17
37 °FClear.No wind62%30.29 "Hg10 mi
10:54 PM48 °FClear.No wind43%30.28 "Hg10 mi
9:54 PM46 °FClear.3 mph42%30.29 "Hg10 mi
8:54 PM50 °FSunny.7 mph36%30.27 "Hg10 mi
7:54 PM51 °FSunny.5 mph35%30.26 "Hg10 mi
6:54 PM57 °FSunny.No wind25%30.26 "Hg10 mi
5:54 PM56 °FSunny.7 mph28%30.26 "Hg10 mi
4:54 PM56 °FSunny.6 mph27%30.27 "Hg10 mi
3:54 PM57 °FSunny.N/A29%30.28 "Hg10 mi
2:54 PM53 °FSunny.No wind34%30.30 "Hg10 mi
1:54 PM52 °FSunny.7 mph37%30.31 "Hg10 mi
12:54 PM48 °FSunny.5 mph44%30.33 "Hg10 mi
11:54 AM44 °FSunny.6 mph49%30.37 "Hg10 mi
10:54 AM40 °FPassing clouds.5 mph55%30.37 "Hg10 mi
9:54 AM37 °FPartly sunny.No wind60%30.38 "Hg10 mi
Weather by CustomWeather, © 2014

See weather overview